�������l�o���
Date,Time,MP-1(��Sv/h),MP-2(��Sv/h),MP-3(��Sv/h),MP-4(��Sv/h),MP-5(��Sv/h),MP-6(��Sv/h),MP-7(��Sv/h),MP-8(��Sv/h),����,����(m/s),���J
2021/06/08,00:00,0.624,0.920,0.585,1.120,0.805,0.374,0.646,0.603,���쓌,1.2,��
2021/06/08,00:10,0.624,0.920,0.585,1.122,0.806,0.374,0.646,0.603,���쓌,1.4,��
2021/06/08,00:20,0.624,0.919,0.585,1.121,0.802,0.373,0.646,0.602,-,CALM,��
2021/06/08,00:30,0.622,0.920,0.585,1.121,0.804,0.373,0.645,0.603,�k��,1.2,��
2021/06/08,00:40,0.625,0.921,0.583,1.120,0.804,0.372,0.645,0.603,���k��,1.4,��
2021/06/08,00:50,0.622,0.919,0.584,1.118,0.805,0.374,0.646,0.602,��,1.2,��
2021/06/08,01:00,0.624,0.919,0.584,1.120,0.804,0.372,0.645,0.603,��,1.5,��
2021/06/08,01:10,0.623,0.920,0.585,1.123,0.805,0.374,0.645,0.603,�쐼,0.8,��
2021/06/08,01:20,0.623,0.919,0.584,1.116,0.803,0.374,0.645,0.604,���쐼,1.2,��
2021/06/08,01:30,0.621,0.920,0.583,1.122,0.803,0.374,0.647,0.602,���k��,1.2,��
2021/06/08,01:40,0.624,0.919,0.584,1.121,0.802,0.373,0.644,0.603,��,2.2,��
2021/06/08,01:50,0.623,0.919,0.583,1.121,0.802,0.373,0.645,0.602,���쐼,2.5,��
2021/06/08,02:00,0.622,0.920,0.584,1.119,0.803,0.373,0.646,0.603,���쐼,1.9,��
2021/06/08,02:10,0.622,0.919,0.584,1.121,0.803,0.372,0.646,0.602,��쓌,1.7,��
2021/06/08,02:20,0.622,0.917,0.583,1.120,0.804,0.373,0.644,0.604,��,1.5,��
2021/06/08,02:30,0.622,0.919,0.584,1.122,0.804,0.372,0.645,0.601,�쓌,2.5,��
2021/06/08,02:40,0.623,0.917,0.583,1.121,0.804,0.372,0.646,0.603,�쓌,2.0,��
2021/06/08,02:50,0.621,0.920,0.585,1.122,0.803,0.372,0.646,0.603,���쓌,1.7,��
2021/06/08,03:00,0.623,0.920,0.584,1.120,0.801,0.373,0.646,0.604,�쓌,2.6,��
2021/06/08,03:10,0.624,0.918,0.584,1.121,0.803,0.374,0.645,0.603,�쓌,2.8,��
2021/06/08,03:20,0.622,0.915,0.583,1.122,0.803,0.373,0.646,0.603,�쓌,3.8,��
2021/06/08,03:30,0.622,0.918,0.581,1.120,0.803,0.372,0.646,0.602,�쓌,3.8,��
2021/06/08,03:40,0.621,0.919,0.584,1.122,0.801,0.372,0.648,0.603,�쓌,2.9,��
2021/06/08,03:50,0.620,0.918,0.585,1.120,0.804,0.373,0.645,0.602,�쓌,2.3,��
2021/06/08,04:00,0.620,0.919,0.584,1.121,0.803,0.372,0.644,0.602,�쓌,2.9,��
2021/06/08,04:10,0.621,0.919,0.583,1.118,0.802,0.372,0.645,0.603,��쓌,2.5,��
2021/06/08,04:20,0.621,0.918,0.584,1.123,0.803,0.372,0.645,0.602,��쓌,2.3,��
2021/06/08,04:30,0.622,0.918,0.582,1.122,0.802,0.371,0.646,0.601,��쓌,2.6,��
2021/06/08,04:40,0.623,0.918,0.583,1.120,0.799,0.373,0.646,0.603,��쓌,2.6,��
2021/06/08,04:50,0.620,0.917,0.584,1.120,0.802,0.373,0.646,0.604,��,2.5,��
2021/06/08,05:00,0.625,0.918,0.583,1.121,0.802,0.373,0.645,0.604,��쓌,2.0,��
2021/06/08,05:10,0.621,0.920,0.583,1.120,0.802,0.373,0.647,0.604,��쓌,2.0,��
2021/06/08,05:20,0.623,0.919,0.584,1.120,0.802,0.372,0.645,0.604,��,1.7,��
2021/06/08,05:30,0.622,0.920,0.582,1.120,0.803,0.373,0.645,0.603,��,1.7,��
2021/06/08,05:40,0.622,0.920,0.584,1.121,0.804,0.372,0.646,0.603,��,1.4,��
2021/06/08,05:50,0.622,0.918,0.584,1.123,0.804,0.373,0.647,0.605,��,1.7,��
2021/06/08,06:00,0.622,0.921,0.585,1.122,0.803,0.373,0.646,0.603,��쓌,2.0,��
2021/06/08,06:10,0.622,0.921,0.583,1.123,0.803,0.372,0.646,0.603,��쐼,1.4,��
2021/06/08,06:20,0.622,0.917,0.584,1.122,0.803,0.373,0.647,0.602,��쐼,1.7,��
2021/06/08,06:30,0.622,0.919,0.584,1.121,0.803,0.372,0.646,0.603,��쐼,1.5,��
2021/06/08,06:40,0.624,0.915,0.583,1.121,0.802,0.373,0.647,0.603,���쐼,0.9,��
2021/06/08,06:50,0.625,0.917,0.584,1.120,0.802,0.373,0.646,0.601,��,1.2,��
2021/06/08,07:00,0.622,0.914,0.585,1.122,0.802,0.370,0.645,0.603,��,0.6,��
2021/06/08,07:10,0.623,0.917,0.584,1.120,0.803,0.371,0.646,0.604,-,CALM,��
2021/06/08,07:20,0.624,0.918,0.585,1.123,0.803,0.371,0.645,0.603,��,0.8,��
2021/06/08,07:30,0.623,0.918,0.587,1.122,0.802,0.371,0.646,0.601,��쓌,0.8,��
2021/06/08,07:40,0.622,0.921,0.585,1.122,0.801,0.372,0.644,0.602,��쓌,0.9,��
2021/06/08,07:50,0.622,0.921,0.585,1.121,0.803,0.370,0.644,0.602,��,1.2,��
2021/06/08,08:00,0.622,0.920,0.584,1.123,0.802,0.370,0.642,0.602,�쓌,1.5,��
2021/06/08,08:10,0.622,0.922,0.583,1.123,0.804,0.372,0.644,0.601,���쓌,1.5,��
2021/06/08,08:20,0.623,0.918,0.583,1.123,0.804,0.372,0.644,0.602,���쓌,2.0,��
2021/06/08,08:30,0.623,0.919,0.583,1.120,0.803,0.372,0.644,0.601,�쓌,1.5,��
2021/06/08,08:40,0.626,0.918,0.583,1.123,0.801,0.372,0.645,0.602,�쓌,2.0,��
2021/06/08,08:50,0.623,0.919,0.583,1.123,0.803,0.371,0.645,0.603,���쓌,1.7,��
2021/06/08,09:00,0.625,0.918,0.584,1.123,0.804,0.371,0.643,0.600,�쓌,1.5,��
2021/06/08,09:10,0.622,0.920,0.586,1.123,0.803,0.371,0.643,0.602,���쓌,2.0,��
2021/06/08,09:20,0.624,0.918,0.583,1.121,0.803,0.372,0.644,0.602,���쓌,1.9,��
2021/06/08,09:30,0.624,0.917,0.583,1.122,0.802,0.371,0.644,0.601,�쓌,2.0,��
2021/06/08,09:40,0.623,0.919,0.584,1.122,0.803,0.371,0.643,0.602,��쓌,2.0,��
2021/06/08,09:50,0.624,0.918,0.583,1.122,0.803,0.371,0.644,0.602,-,CALM,��
2021/06/08,10:00,0.623,0.917,0.585,1.121,0.803,0.371,0.645,0.601,��쓌,1.1,��
2021/06/08,10:10,0.622,0.920,0.587,1.123,0.803,0.372,0.645,0.602,��쓌,1.4,��
2021/06/08,10:20,0.622,0.920,0.586,1.121,0.803,0.372,0.643,0.601,��쓌,0.9,��
2021/06/08,10:30,0.623,0.920,0.584,1.123,0.804,0.371,0.644,0.602,��,0.8,��
2021/06/08,10:40,0.624,0.918,0.585,1.124,0.804,0.371,0.645,0.600,��쓌,1.4,��
2021/06/08,10:50,0.624,0.919,0.586,1.122,0.805,0.372,0.644,0.602,��,1.2,��
2021/06/08,11:00,0.623,0.921,0.587,1.125,0.806,0.371,0.644,0.602,��쐼,1.4,��
2021/06/08,11:10,0.626,0.924,0.586,1.124,0.804,0.371,0.646,0.601,-,CALM,��
2021/06/08,11:20,0.624,0.920,0.585,1.122,0.806,0.371,0.645,0.603,��쐼,0.6,��
2021/06/08,11:30,0.624,0.924,0.586,1.123,0.806,0.372,0.645,0.602,��,1.4,��
2021/06/08,11:40,0.624,0.925,0.586,1.123,0.804,0.372,0.646,0.600,��쐼,1.5,��
2021/06/08,11:50,0.622,0.925,0.586,1.124,0.805,0.373,0.645,0.601,��쐼,1.7,��
2021/06/08,12:00,0.626,0.924,0.585,1.124,0.805,0.370,0.645,0.601,��쐼,0.6,��
2021/06/08,12:10,0.625,0.924,0.586,1.123,0.806,0.371,0.646,0.601,�k��,0.6,��
2021/06/08,12:20,0.626,0.923,0.585,1.123,0.807,0.372,0.646,0.600,-,CALM,��
2021/06/08,12:30,0.625,0.922,0.585,1.122,0.805,0.372,0.645,0.602,-,CALM,��
2021/06/08,12:40,0.622,0.922,0.587,1.124,0.805,0.372,0.644,0.601,-,CALM,��
2021/06/08,12:50,0.625,0.922,0.586,1.125,0.807,0.372,0.645,0.601,�k��,0.6,��
2021/06/08,13:00,0.626,0.923,0.586,1.125,0.806,0.372,0.645,0.602,���k��,1.1,��
2021/06/08,13:10,0.624,0.920,0.586,1.122,0.808,0.371,0.647,0.600,�k��,1.5,��
2021/06/08,13:20,0.623,0.920,0.585,1.123,0.805,0.372,0.644,0.600,�k��,0.9,��
2021/06/08,13:30,0.625,0.922,0.586,1.124,0.807,0.370,0.644,0.601,-,CALM,��
2021/06/08,13:40,0.624,0.924,0.587,1.125,0.807,0.372,0.646,0.601,��쓌,0.6,��
2021/06/08,13:50,0.625,0.923,0.585,1.126,0.806,0.372,0.646,0.603,�쐼,0.9,��
2021/06/08,14:00,0.626,0.922,0.587,1.123,0.805,0.372,0.646,0.602,�쐼,0.6,��
2021/06/08,14:10,0.625,0.925,0.587,1.126,0.807,0.373,0.645,0.600,�쐼,1.2,��
2021/06/08,14:20,0.623,0.923,0.588,1.125,0.806,0.373,0.646,0.602,��쐼,0.6,��
2021/06/08,14:30,0.625,0.923,0.587,1.124,0.805,0.373,0.644,0.603,-,CALM,��
2021/06/08,14:40,0.625,0.924,0.587,1.124,0.807,0.373,0.645,0.604,-,CALM,��
2021/06/08,14:50,0.626,0.923,0.588,1.125,0.805,0.372,0.645,0.603,��쐼,0.6,��
2021/06/08,15:00,0.626,0.926,0.589,1.123,0.805,0.372,0.645,0.603,�쐼,0.6,��
2021/06/08,15:10,0.625,0.923,0.586,1.125,0.808,0.371,0.646,0.605,-,CALM,��
2021/06/08,15:20,0.625,0.926,0.587,1.125,0.807,0.373,0.646,0.604,��쓌,0.6,��
2021/06/08,15:30,0.627,0.927,0.586,1.125,0.807,0.371,0.647,0.604,��쐼,1.2,��
2021/06/08,15:40,0.626,0.927,0.589,1.125,0.805,0.373,0.646,0.605,��쐼,1.4,�L
2021/06/08,15:50,0.628,0.926,0.587,1.125,0.808,0.374,0.647,0.605,�쐼,1.2,��
2021/06/08,16:00,0.628,0.925,0.589,1.125,0.805,0.373,0.645,0.604,���쐼,1.7,��
2021/06/08,16:10,0.627,0.928,0.588,1.127,0.808,0.371,0.646,0.605,���쐼,1.9,��
2021/06/08,16:20,0.628,0.929,0.588,1.127,0.806,0.373,0.648,0.605,���k��,2.2,�L
2021/06/08,16:30,0.626,0.926,0.587,1.127,0.807,0.374,0.647,0.604,�k�k��,3.3,�L
2021/06/08,16:40,0.629,0.927,0.589,1.129,0.807,0.373,0.647,0.604,�k,4.2,�L
2021/06/08,16:50,0.628,0.928,0.589,1.127,0.809,0.373,0.647,0.607,�k,5.0,�L
2021/06/08,17:00,0.627,0.928,0.589,1.125,0.806,0.374,0.648,0.605,�k,3.8,�L
2021/06/08,17:10,0.627,0.928,0.588,1.125,0.807,0.374,0.645,0.605,�k,4.9,�L
2021/06/08,17:20,0.628,0.928,0.588,1.127,0.808,0.375,0.646,0.605,�k,4.0,��
2021/06/08,17:30,0.627,0.925,0.589,1.128,0.806,0.373,0.646,0.603,�k,3.5,��
2021/06/08,17:40,0.628,0.928,0.589,1.130,0.808,0.374,0.648,0.605,�k��,2.2,��
2021/06/08,17:50,0.626,0.929,0.589,1.127,0.809,0.374,0.646,0.606,�k��,2.0,��
2021/06/08,18:00,0.627,0.924,0.589,1.129,0.807,0.375,0.646,0.606,��,0.9,��
2021/06/08,18:10,0.628,0.928,0.589,1.127,0.808,0.373,0.647,0.606,��,1.1,��
2021/06/08,18:20,0.627,0.926,0.588,1.125,0.806,0.373,0.646,0.604,��,2.3,��
2021/06/08,18:30,0.625,0.927,0.588,1.127,0.807,0.374,0.646,0.604,-,CALM,��
2021/06/08,18:40,0.623,0.925,0.586,1.125,0.806,0.372,0.645,0.604,��,1.2,��
2021/06/08,18:50,0.622,0.928,0.587,1.125,0.806,0.373,0.645,0.603,���쓌,1.4,��
2021/06/08,19:00,0.623,0.926,0.585,1.126,0.805,0.373,0.645,0.604,���쓌,1.4,��
2021/06/08,19:10,0.625,0.926,0.585,1.125,0.807,0.373,0.646,0.604,��쐼,0.6,��
2021/06/08,19:20,0.625,0.926,0.587,1.126,0.806,0.373,0.644,0.605,���쐼,2.2,��
2021/06/08,19:30,0.624,0.923,0.588,1.126,0.805,0.373,0.645,0.604,��,2.5,��
2021/06/08,19:40,0.623,0.925,0.586,1.125,0.806,0.373,0.646,0.603,���k��,2.3,��
2021/06/08,19:50,0.623,0.925,0.587,1.124,0.809,0.372,0.645,0.602,���k��,1.9,��
2021/06/08,20:00,0.623,0.925,0.586,1.124,0.805,0.373,0.645,0.604,��,2.0,��
2021/06/08,20:10,0.623,0.923,0.586,1.123,0.805,0.374,0.647,0.603,��,2.6,��
2021/06/08,20:20,0.623,0.925,0.586,1.126,0.806,0.373,0.645,0.603,���쐼,2.8,��
2021/06/08,20:30,0.625,0.924,0.587,1.127,0.806,0.373,0.648,0.603,�쐼,2.3,��
2021/06/08,20:40,0.623,0.923,0.587,1.127,0.805,0.372,0.647,0.604,��,2.9,��
2021/06/08,20:50,0.622,0.924,0.588,1.125,0.805,0.372,0.648,0.605,��쐼,3.2,��
2021/06/08,21:00,0.622,0.923,0.587,1.124,0.805,0.373,0.647,0.603,���쐼,2.5,��
2021/06/08,21:10,0.623,0.926,0.586,1.125,0.806,0.374,0.647,0.604,��,2.3,��
2021/06/08,21:20,0.622,0.927,0.585,1.126,0.806,0.374,0.646,0.603,��,2.2,��
2021/06/08,21:30,0.622,0.924,0.585,1.124,0.805,0.374,0.644,0.604,���k��,2.6,��
2021/06/08,21:40,0.623,0.923,0.584,1.126,0.805,0.372,0.647,0.605,���쐼,2.6,��
2021/06/08,21:50,0.621,0.923,0.586,1.126,0.806,0.373,0.646,0.603,���쐼,2.6,��
2021/06/08,22:00,0.622,0.924,0.586,1.124,0.805,0.373,0.646,0.604,���k��,3.2,��
2021/06/08,22:10,0.622,0.923,0.584,1.125,0.807,0.374,0.647,0.604,���쐼,2.6,��
2021/06/08,22:20,0.621,0.922,0.585,1.126,0.805,0.372,0.646,0.604,��,2.9,��
2021/06/08,22:30,0.620,0.923,0.584,1.125,0.803,0.373,0.645,0.605,��,3.4,��
2021/06/08,22:40,0.622,0.923,0.584,1.127,0.807,0.373,0.646,0.603,��,2.2,��
2021/06/08,22:50,0.621,0.922,0.584,1.123,0.805,0.373,0.645,0.603,���쐼,2.3,��
2021/06/08,23:00,0.621,0.923,0.585,1.123,0.804,0.372,0.646,0.604,�쐼,2.0,��
2021/06/08,23:10,0.621,0.922,0.586,1.126,0.805,0.372,0.646,0.604,���쐼,2.3,��
2021/06/08,23:20,0.620,0.923,0.585,1.127,0.803,0.373,0.647,0.603,��,2.5,��
2021/06/08,23:30,0.620,0.922,0.584,1.126,0.805,0.371,0.647,0.602,��,2.2,��
2021/06/08,23:40,0.621,0.924,0.585,1.126,0.805,0.374,0.646,0.603,��,4.1,��
2021/06/08,23:50,0.622,0.922,0.584,1.125,0.807,0.373,0.645,0.604,��,4.7,��
